Погода в Брей-Червинии

Италия     45°56′03″N   7°37′52″E
темп.,
°C
ветер,
м/с
пор.,
м/с
влажн.,
%
обл.,
%
осадки,
мм/ч
давл.,
гПа
погр.,
м
17 апреля, сб
сб1723:00−18юв119899 0.3 102811
02:00−17ююв119091 0.3 102612
05:00−17юв11896 0.0 102411
08:00−13в117687 0.0 102112
11:00−9вюв125464 0.0 1016921
14:00−8вюв2282100 0.4 1015609
17:00−7в2279100 1.4 1014714
20:00−12св119890 2.6 101814
18 апреля, вс
вс1823:00−15всв019846 0.2 102310
02:00−15з11914 0.2 102210
05:00−15сз12915 0.0 102110
08:00−12сз229554 0.0 102026
11:00−9сз115935 0.0 1015678
14:00−7ссз2283100 0.3 1015630
17:00−6ссз3380100 0.8 1014803
20:00−10ссз339786 1.6 101820
19 апреля, пн
пн1923:00−14ссз329994 0.2 102313
02:00−15ссз129985 0.3 102414
05:00−16ссз128913 0.0 102311
08:00−12ссз12740 0.0 102019
11:00−8ссз11371 0.0 1014597
14:00−6сз227469 0.3 1013774
17:00−5сз337558 0.6 1013834
20:00−10ссз229688 1.2 101637
20 апреля, вт
вт2023:00−13с129890 0.1 102013
02:00−14св019231 0.1 102111
05:00−14ююз018923 0.0 101912
08:00−10ююв11854 0.0 101724
11:00−7ю116189 0.1 1013805
14:00−6зюз1174100 1.2 1012525
17:00−5зсз2292100 3.6 1011380
20:00−6с1196100 9.4 1013132
21 апреля, ср
ср2123:00−7в119699 2.9 101449
02:00−7ю229688 3.9 101427
05:00−12зюз119832 0.1 101710
08:00−9зсз019533 0.1 101513
11:00−6юз1183100 0.3 1012444
14:00−4ююз3395100 2.3 1010473
17:00−4ююз2293100 2.1 1009408
20:00−5ю2398100 8.5 1008313